[[[{"header":{"parameterUnit":"kt","parameterCategory":2,"dx":1,"dy":1,"la1":30.253999710083008,"la2":30.299108505249023,"lo1":-89.0895004272461,"lo2":-89.04439544677734,"nx":28,"ny":28,"refTime":"2022-09-25T21:00:00:Z","depth":0,"parameterNumber":1,"parameterNumberName":"U-component_of_WINDS"},"data":[5.0858,5.1002,5.1023,5.1197,5.1246,5.1367,5.1417,5.1484,5.1543,5.169,5.1778,5.1815,5.1882,5.1993,5.2089,5.2103,5.214,5.2173,5.2183,5.2016,5.1994,5.1973,5.1938,5.2183,5.2183,5.2351,5.2353,5.2354,5.0726,5.0776,5.0875,5.0986,5.107,5.105,5.1137,5.1208,5.1318,5.1393,5.1483,5.1614,5.1721,5.1779,5.1885,5.1951,5.1947,5.1978,5.1971,5.1981,5.1804,5.1767,5.1979,5.1979,5.1979,5.1979,5.1979,5.1979,5.049,5.0577,5.0656,5.0765,5.0827,5.0902,5.0987,5.1031,5.1129,5.1244,5.1253,5.1378,5.1457,5.1598,5.1651,5.1748,5.1718,5.1758,5.1767,5.1776,5.178,5.1523,5.1768,5.1768,5.1767,5.1767,5.1767,0,5.0323,5.0335,5.0434,5.0538,5.0618,5.0702,5.0782,5.0837,5.0872,5.0952,5.1069,5.114,5.128,5.1391,5.1498,5.1546,5.1532,5.1536,5.1562,5.1556,5.1535,5.1541,5.1246,5.1528,5.1526,5.1524,5.1523,5.1522,5.0081,5.0182,5.0279,5.0344,5.0394,5.0502,5.0569,5.0594,5.0665,5.0768,5.0843,5.0957,5.1049,5.1233,5.1284,5.139,5.1383,5.1487,5.1399,5.1388,5.1378,5.1369,5.1377,5.1502,5.1504,5.1506,5.1508,0,4.9942,4.9979,5.0143,5.023,5.0255,5.0359,5.0432,5.0521,5.0555,5.0681,5.0712,5.0766,5.0881,5.0916,5.1057,5.1071,5.1237,5.1232,5.1207,5.1206,5.1298,5.1287,5.1603,5.1643,5.1397,5.1399,5.1401,0,4.9748,4.9881,4.9928,5.0022,5.0169,5.019,5.0335,5.0379,5.0449,5.0549,5.0541,5.0635,5.0666,5.0765,5.0787,5.093,5.0959,5.0976,5.0979,5.0974,5.0971,5.1009,5.0994,5.0991,5.0989,5.0988,5.0986,0,4.9521,4.9706,4.9859,4.9906,5.0013,5.0085,5.0132,5.0213,5.0281,5.0374,5.0417,5.0527,5.0585,5.0668,5.0694,5.0633,5.0873,5.0794,5.089,5.0889,5.0938,5.0934,5.1209,5.0984,5.0984,5.0983,5.0983,0,4.9369,4.9465,4.9684,4.977,4.9818,4.992,5.0027,5.0123,5.0209,5.0229,5.0304,5.0302,5.0435,5.0352,5.0533,5.0444,5.0502,5.0533,5.054,5.055,5.0455,5.0599,5.0862,5.0888,5.0563,5.056,5.0557,0,4.9096,4.9329,4.9349,4.9557,4.9668,4.9649,4.9763,4.984,4.9877,4.9976,5.0016,5.013,5.0077,5.0117,5.0204,5.0249,5.0365,5.0236,5.0373,5.0377,5.0344,5.0588,5.0615,5.0801,5.0513,5.0518,5.0521,0,4.8889,4.902,4.9057,4.911,4.9218,4.9313,4.9445,4.9563,4.9627,4.9718,4.9826,4.9992,4.9956,5.0024,5.0035,5.0123,5.0287,5.0073,5.0076,5.0105,5.0496,5.052,5.0552,5.0275,5.028,5.0285,5.0486,0,4.864,4.8764,4.8865,4.8989,4.9069,4.9204,4.9241,4.932,4.932,4.9356,4.9521,4.9597,4.9718,4.9766,4.977,4.9962,4.9934,4.9896,4.9816,4.9978,5.0044,5.0072,4.9712,4.971,4.9708,4.9707,0,0,4.8367,4.8544,4.8564,4.8694,4.8761,4.8741,4.888,4.8945,4.9076,4.9122,4.9078,4.9321,4.9386,4.9581,4.9635,4.9687,4.9722,4.9666,4.9902,4.9923,4.9943,5.0014,5.0043,4.9704,4.9703,4.9703,4.9702,0,4.8282,4.835,4.849,4.8557,4.8657,4.8688,4.8722,4.8818,4.8847,4.9012,4.8991,4.9095,4.9293,4.936,4.9421,4.9644,4.9622,4.968,4.9784,4.9883,4.9906,4.9928,5.0002,5.0029,4.9698,4.9698,4.9698,0,4.8081,4.8151,4.8224,4.8381,4.8447,4.8565,4.8489,4.8619,4.8706,4.8678,4.884,4.8889,4.8986,4.9168,4.9252,4.9214,4.9527,4.9439,4.9451,4.946,4.9557,4.9586,4.9612,4.9273,4.9272,4.927,0,0,4.8002,4.8119,4.8203,4.8366,4.8408,4.8459,4.8527,4.8535,4.8623,4.8658,4.8719,4.8805,4.8918,4.8993,4.9102,4.9299,4.9318,4.9385,4.9405,4.9421,4.9438,4.954,4.9569,4.9264,4.9264,4.9264,0,0,4.7965,4.8068,4.8054,4.8248,4.8332,4.8426,4.8523,4.8508,4.8611,4.8599,4.862,4.8645,4.8817,4.8866,4.8777,4.9073,4.8993,4.9016,4.9034,4.906,4.908,4.9063,4.871,0,0,0,0,0,4.7898,4.8055,4.8041,4.808,4.828,4.8433,4.8459,4.8479,4.842,4.8497,4.8545,4.8519,4.8821,4.8743,4.8781,4.8879,4.9183,4.9198,4.9211,4.9282,4.9309,4.9331,0,0,0,0,0,0,4.7914,4.796,4.8037,4.8137,4.8182,4.8428,4.8332,4.8342,4.8413,4.8405,4.851,4.8522,4.8543,4.8725,4.8759,4.8851,4.8699,4.9189,4.9201,4.9212,4.9291,4.9313,4.9332,0,0,0,0,0,4.7926,4.7963,4.8279,4.8135,4.8174,4.8239,4.8326,4.8334,4.8389,4.8465,4.8476,4.8398,4.8545,4.8575,4.8746,4.8835,4.8676,4.8688,4.9197,4.9206,4.9215,4.9302,0,0,0,0,0,0,4.7935,4.7971,4.8287,4.83,4.8078,4.8225,4.8249,4.8327,4.8445,4.8457,4.8353,4.8346,4.8549,4.8571,4.8594,4.8829,4.8657,4.8669,4.8677,4.9204,4.9212,4.9218,0,0,0,0,0,0,4.7951,4.7982,4.8294,4.822,4.8224,4.8213,4.8234,4.8384,4.8447,4.8326,4.8324,4.8349,4.8514,4.8569,4.8587,4.8819,4.8642,4.8654,4.8663,4.8668,4.921,4.9216,0,0,0,0,0,0,4.7965,4.7991,4.8217,4.822,4.8224,4.8367,4.8345,4.8549,4.8383,4.8321,4.8369,4.8362,4.8513,4.8532,4.8582,4.8807,4.8816,4.8642,4.8651,4.8657,4.8661,0,0,0,0,0,0,0,4.7976,4.7792,4.8212,4.822,4.8223,4.8417,4.842,4.8424,4.8381,4.8376,4.837,4.8365,4.8573,4.8586,4.8599,4.8797,0,0,4.8641,4.8647,0,0,0,0,0,0,0,0,4.7781,4.7789,4.8212,4.8215,4.8218,4.8417,4.842,4.8423,4.838,4.8376,4.8371,4.8367,4.8576,4.8587,4.8598,0,0,0,0,0,0,0,0,0,0,0,0,0,0,0,4.8213,4.8215,0,4.8418,4.842,4.8422,4.838,4.8376,4.8372,4.8369,4.8579,4.8588,4.8597,0,0,0,0,0,0,0,0,0,0,0,0,0,0,0,0,0,0,0,0,0,0,0,0,0,0,0,0,0,0,0,0,0,0,0,0,0,0,0,0,0,0,0,0,0,0,0,0,0,0,0,0,0,0,0,0,0,0,0,0,0,0,0,0,0,0,0,0,0]}],[{"header":{"parameterUnit":"kt","parameterCategory":2,"dx":1,"dy":1,"la1":30.253999710083008,"la2":30.299108505249023,"lo1":-89.0895004272461,"lo2":-89.04439544677734,"nx":28,"ny":28,"refTime":"2022-09-25T21:00:00:Z","depth":0,"parameterNumber":2,"parameterNumberName":"V-component_of_WINDS"},"data":[4.4638,4.468,4.4661,4.4699,4.4689,4.4712,4.4714,4.4715,4.4711,4.4736,4.4748,4.4733,4.4722,4.4731,4.4743,4.4736,4.4741,4.477,4.4756,4.4647,4.463,4.4615,4.4602,4.4772,4.4772,4.4871,4.4872,4.4873,4.4557,4.4547,4.4563,4.4564,4.4577,4.4538,4.4536,4.4549,4.4572,4.4567,4.4578,4.4599,4.4614,4.4593,4.4603,4.4622,4.4604,4.4626,4.4623,4.4622,4.4505,4.4492,4.4641,4.4641,4.4641,4.4641,4.4641,4.4641,4.4405,4.4431,4.4421,4.4437,4.4433,4.4435,4.4456,4.4437,4.4453,4.4461,4.4436,4.4461,4.4453,4.4458,4.4454,4.4473,4.4445,4.4463,4.4467,4.4472,4.4479,4.4334,4.4475,4.4474,4.4474,4.4473,4.4473,0,4.4286,4.4268,4.4282,4.429,4.4301,4.4306,4.4307,4.432,4.4275,4.429,4.4309,4.4317,4.4334,4.4349,4.4356,4.4348,4.4308,4.4303,4.4315,4.4326,4.4334,4.4328,4.4135,4.4299,4.4297,4.4296,4.4295,4.4295,4.4128,4.4163,4.4143,4.4155,4.4151,4.4172,4.418,4.4139,4.4149,4.4145,4.4171,4.4186,4.4196,4.4232,4.4209,4.4221,4.4202,4.4266,4.4203,4.4212,4.4199,4.4197,4.4199,4.4278,4.428,4.4282,4.4283,0,4.4041,4.4009,4.4056,4.4033,4.4028,4.4066,4.4046,4.4072,4.4051,4.4083,4.4088,4.4055,4.4075,4.4042,4.4059,4.4041,4.4102,4.4084,4.4103,4.4097,4.4149,4.4144,4.4329,4.435,4.4176,4.4178,4.4179,0,4.3892,4.394,4.3889,4.3918,4.3968,4.3924,4.3976,4.3962,4.3955,4.3979,4.3929,4.3953,4.3907,4.3927,4.3901,4.3945,4.3949,4.3937,4.3929,4.394,4.3941,4.3943,4.3934,4.3912,4.3912,4.3911,4.391,0,4.3756,4.3786,4.3833,4.3834,4.3815,4.3838,4.3831,4.3823,4.3832,4.3838,4.3843,4.3855,4.3861,4.3871,4.3836,4.3795,4.389,4.3826,4.3877,4.3878,4.3899,4.3897,4.4071,4.3909,4.3909,4.3908,4.3908,0,4.3631,4.3638,4.3713,4.3694,4.3704,4.3736,4.3743,4.3763,4.3757,4.3742,4.3747,4.3709,4.3746,4.3685,4.3735,4.369,4.3699,4.3691,4.3694,4.3693,4.3624,4.3724,4.3895,4.391,4.3695,4.3693,4.3692,0,4.3482,4.3549,4.3512,4.3584,4.3609,4.3549,4.3584,4.3581,4.3564,4.3583,4.3564,4.3587,4.3534,4.3536,4.3566,4.3546,4.3605,4.3538,4.3564,4.3566,4.3565,4.3723,4.3755,4.3862,4.3669,4.3671,4.3673,0,4.3363,4.3339,4.3355,4.3353,4.3343,4.3365,4.3406,4.3418,4.3433,4.3436,4.3467,4.3501,4.3461,4.3466,4.3436,4.3469,4.3564,4.3422,4.3421,4.3446,4.3655,4.3685,4.3703,4.3537,4.354,4.3542,4.3655,0,4.3175,4.3205,4.3247,4.3248,4.326,4.3305,4.3268,4.3286,4.3255,4.3235,4.3283,4.3273,4.3286,4.3299,4.327,4.3356,4.3336,4.3294,4.3229,4.3335,4.337,4.3385,4.3179,4.3177,4.3175,4.3173,0,0,4.3039,4.3082,4.304,4.3077,4.3084,4.3021,4.3071,4.3071,4.3073,4.3079,4.3043,4.3088,4.3081,4.3142,4.3172,4.3179,4.319,4.3155,4.3285,4.3298,4.331,4.3349,4.3365,4.317,4.317,4.3169,4.3168,0,4.2962,4.2958,4.3008,4.3006,4.3001,4.2978,4.299,4.2974,4.2964,4.3011,4.2958,4.2982,4.302,4.3019,4.3024,4.3148,4.3105,4.3155,4.3232,4.3269,4.3284,4.3297,4.3339,4.3355,4.3164,4.3164,4.3165,0,4.2836,4.2824,4.2845,4.286,4.2856,4.2886,4.2809,4.2844,4.2865,4.2794,4.2842,4.2832,4.2828,4.2892,4.2919,4.2887,4.303,4.298,4.299,4.2991,4.3025,4.3043,4.3059,4.2846,4.2845,4.2844,0,0,4.2775,4.2803,4.2777,4.2841,4.2842,4.2809,4.2821,4.2791,4.2789,4.2789,4.2774,4.2774,4.2795,4.281,4.2828,4.2904,4.2899,4.2942,4.2957,4.2969,4.2978,4.3015,4.3033,4.2841,4.2841,4.284,0,0,4.2745,4.2717,4.2686,4.2756,4.2756,4.2734,4.2774,4.2736,4.2749,4.2739,4.2691,4.2689,4.2749,4.2741,4.2696,4.2804,4.2742,4.2752,4.2807,4.2825,4.284,4.284,4.2616,0,0,0,0,0,4.2647,4.272,4.2693,4.2699,4.2718,4.275,4.2752,4.2713,4.2669,4.2701,4.2683,4.2638,4.2706,4.2665,4.2672,4.2722,4.2794,4.2802,4.281,4.2899,4.2918,4.2935,0,0,0,0,0,0,4.265,4.2657,4.2691,4.2673,4.2677,4.2747,4.2663,4.2654,4.2665,4.2655,4.2643,4.2637,4.2605,4.2659,4.2666,4.2714,4.2613,4.2797,4.2804,4.281,4.2905,4.2921,4.2935,0,0,0,0,0,4.2651,4.2657,4.2698,4.2672,4.2675,4.2641,4.266,4.2652,4.2659,4.2631,4.2624,4.2629,4.2608,4.2611,4.2663,4.2712,4.2608,4.2611,4.2801,4.2807,4.2812,4.2913,0,0,0,0,0,0,4.2652,4.265,4.2697,4.2697,4.2641,4.2637,4.2635,4.265,4.2634,4.2628,4.2615,4.2608,4.261,4.2612,4.2615,4.2713,4.2604,4.2607,4.2609,4.2806,4.281,4.2814,0,0,0,0,0,0,4.2647,4.265,4.2697,4.2661,4.2656,4.2633,4.2631,4.267,4.2634,4.2618,4.2612,4.2612,4.2606,4.2614,4.2616,4.2679,4.2601,4.2604,4.2606,4.2607,4.2809,4.2813,0,0,0,0,0,0,4.2647,4.2651,4.266,4.2657,4.2652,4.2644,4.2667,4.2688,4.2603,4.262,4.2594,4.259,4.2609,4.261,4.2616,4.2679,4.2679,4.2601,4.2603,4.2604,4.2605,0,0,0,0,0,0,0,4.2648,4.2636,4.27,4.2654,4.2649,4.2693,4.2693,4.2692,4.2602,4.2599,4.2595,4.2592,4.2586,4.2589,4.2592,4.2679,0,0,4.2601,4.2602,0,0,0,0,0,0,0,0,4.2634,4.2635,4.27,4.27,4.27,4.2693,4.2693,4.2692,4.2602,4.2599,4.2596,4.2594,4.2587,4.2589,4.2592,0,0,0,0,0,0,0,0,0,0,0,0,0,0,0,4.27,4.27,0,4.2693,4.2693,4.2693,4.2601,4.2599,4.2597,4.2595,4.2588,4.259,4.2591,0,0,0,0,0,0,0,0,0,0,0,0,0,0,0,0,0,0,0,0,0,0,0,0,0,0,0,0,0,0,0,0,0,0,0,0,0,0,0,0,0,0,0,0,0,0,0,0,0,0,0,0,0,0,0,0,0,0,0,0,0,0,0,0,0,0,0,0,0]}]]]